Theta_e
322 318 319 319 316 312 314 315 316 318 317 318 317 319 322 322 340 340 338 334 325 323 327 332 336 340 339 336 334 333 332 333 332 330 330 330 330 330 329 326 326 322 319 316 315 314 313 312 311
321 320 318 313 315 315 312 314 317 317 317 316 316 317 318 319 321 331 337 331 325 321 325 329 333 334 335 332 332 331 332 331 331 331 330 329 328 328 326 324 321 317 314 314 313 313 313 314 315
324 323 316 318 313 314 314 315 318 317 315 316 317 317 320 333 337 337 338 328 326 321 326 325 334 331 329 329 329 330 330 328 329 329 329 327 327 326 325 323 318 315 314 314 313 314 315 316 320
325 323 318 321 319 317 316 317 314 316 318 316 318 319 319 336 339 340 338 329 324 321 323 325 331 328 328 327 326 328 327 326 327 327 326 326 326 325 324 321 317 315 314 314 314 315 316 318 321
327 320 322 322 320 320 316 316 316 318 317 316 318 320 321 335 340 340 334 330 323 322 321 322 326 323 325 326 326 325 324 324 325 325 324 324 324 323 323 320 318 315 315 314 314 315 316 318 321
328 319 324 322 316 320 320 318 319 318 318 320 321 320 327 341 341 336 334 332 325 323 324 324 323 321 321 324 326 323 322 323 323 323 322 321 322 321 323 321 319 315 315 315 315 316 317 318 322
329 322 326 324 325 324 322 320 320 320 322 324 320 321 321 326 339 337 335 332 328 327 325 330 334 322 319 322 325 323 321 321 321 321 320 320 321 321 321 322 320 316 315 315 315 316 317 319 321
324 322 326 323 326 324 324 324 322 324 324 322 322 323 324 334 335 336 333 332 331 329 324 330 333 328 319 321 325 323 321 321 321 320 320 320 321 320 321 322 322 319 316 315 315 316 317 320 321
321 329 330 328 327 326 324 324 323 324 324 322 323 323 322 340 337 334 333 333 333 332 329 329 331 324 320 320 324 323 322 322 322 322 321 322 323 323 323 324 323 322 318 316 315 316 317 320 323
317 320 325 326 326 326 325 324 323 322 322 322 322 321 323 324 339 337 334 333 334 333 331 331 331 323 321 320 321 322 323 324 324 324 325 326 323 323 324 325 326 324 321 317 316 315 317 321 323
312 317 321 323 322 321 321 321 321 320 321 322 320 320 320 322 322 335 335 334 333 331 331 332 333 328 322 321 321 321 322 324 326 325 326 327 326 325 325 328 328 325 322 319 317 317 318 319 320
311 311 316 317 317 316 317 316 317 317 317 318 319 319 319 321 321 320 332 336 335 334 332 331 333 329 325 322 318 319 320 322 324 324 324 328 326 329 328 327 327 324 321 319 318 319 319 321 320
309 309 310 310 311 311 312 313 314 315 315 316 317 318 318 319 320 322 322 326 337 333 329 329 328 328 326 324 319 318 318 320 320 321 323 324 325 327 328 326 325 322 320 319 318 320 322 322 321
307 308 308 308 309 310 311 311 312 314 315 315 316 315 314 317 319 320 325 330 331 337 336 329 327 325 325 323 322 319 319 320 319 319 320 320 322 321 321 321 320 319 320 320 320 320 322 322 322
308 308 306 307 308 309 310 311 312 313 314 315 315 314 314 316 318 319 323 326 329 333 341 339 330 326 324 325 324 322 321 320 319 318 318 318 319 320 320 320 320 320 319 321 322 323 323 325 326
307 304 306 306 308 308 311 312 313 310 311 312 312 312 312 312 313 315 317 320 322 333 336 340 342 336 329 324 323 325 324 323 321 322 321 320 321 320 321 322 323 325 324 325 326 326 326 327 328
305 305 307 308 307 308 310 310 309 310 310 311 311 311 311 310 311 313 314 315 317 321 332 339 344 344 340 334 328 325 324 323 322 322 324 324 327 323 325 328 332 334 333 334 335 333 330 329 329
309 309 308 308 308 309 308 308 309 309 309 309 309 310 311 311 311 312 313 314 315 317 322 332 341 346 345 342 337 331 328 325 327 328 329 332 333 334 336 338 338 338 338 339 338 336 334 332 331
308 309 309 308 309 310 309 309 308 309 308 307 308 309 309 310 311 311 312 312 314 313 314 320 333 338 346 344 341 339 338 337 336 335 336 340 340 340 340 340 341 341 341 342 341 338 334 333 332
307 307 310 309 310 311 309 309 308 308 308 308 308 308 308 308 309 310 310 311 311 312 313 314 319 324 336 342 343 343 343 343 342 341 340 342 343 343 342 343 343 342 343 342 341 339 334 333 333
310 311 312 311 311 308 308 306 307 308 308 308 308 307 307 307 307 308 309 310 312 312 314 314 314 315 319 329 337 340 342 342 343 345 344 343 343 346 345 345 345 346 345 343 341 339 337 334 334
310 311 312 310 309 308 309 309 307 307 306 307 306 304 305 308 310 310 311 311 313 314 315 315 315 315 315 318 330 336 339 341 340 341 342 341 343 345 344 344 346 346 344 343 341 340 339 336 335
308 311 310 310 309 308 307 307 306 306 307 307 306 307 310 311 310 310 310 311 311 313 314 316 316 316 316 317 325 333 337 337 338 340 341 342 343 343 342 340 340 343 344 341 340 340 339 338 337
308 308 305 304 306 307 307 308 306 306 308 307 309 310 310 310 310 309 309 310 310 311 312 316 316 317 316 316 320 330 338 339 340 340 340 341 341 340 340 338 341 339 338 339 340 342 341 340 338
305 304 306 306 305 307 306 308 306 306 307 307 312 312 310 309 308 308 307 308 309 310 311 314 316 316 318 319 318 324 335 339 340 338 338 339 336 335 333 334 333 334 337 341 343 344 341 341 340
307 305 307 310 310 305 306 308 307 307 307 309 311 311 311 310 308 306 306 307 309 310 311 313 315 314 319 326 322 321 329 337 339 337 336 339 336 333 331 330 332 338 342 344 345 343 344 343 340
308 308 305 307 306 306 307 307 307 308 308 309 311 311 309 309 307 306 306 307 308 310 311 313 314 315 320 325 326 323 329 335 336 337 337 337 336 333 330 332 336 344 346 345 344 344 343 342 339
307 306 308 305 312 313 309 308 309 307 307 307 310 309 308 308 306 307 307 309 311 310 311 314 313 314 317 323 328 323 326 333 334 335 334 334 333 331 330 338 343 347 346 345 343 342 341 340 339
307 309 309 305 305 308 308 309 306 308 308 309 307 307 308 308 307 306 307 310 310 311 312 313 312 313 317 322 331 322 326 330 333 334 334 332 331 331 336 340 346 346 345 343 342 342 340 339 338
306 308 308 305 307 313 312 312 309 307 306 307 307 308 310 310 308 307 308 310 312 316 317 314 312 316 320 326 334 324 324 329 331 332 332 332 333 335 339 343 346 345 344 342 342 340 340 339 337
Wind_Speed
8 4 2 4 4 5 3 6 1 5 6 3 2 3 7 5 7 6 8 34 39 40 43 42 42 39 36 34 32 32 31 31 29 28 26 26 25 24 22 20 19 16 15 14 13 11 10 9 8
6 1 3 3 4 1 5 4 3 4 5 8 9 3 4 14 13 8 8 29 44 48 48 45 44 42 39 37 34 33 32 31 29 28 26 25 24 22 21 20 18 16 14 14 12 12 11 9 8
2 2 3 4 3 6 5 5 3 4 9 5 4 7 4 5 2 6 10 38 43 48 47 46 44 43 41 39 37 34 32 30 28 27 26 24 23 22 20 18 16 14 13 12 11 11 10 10 8
2 4 3 3 8 4 5 3 5 5 5 3 2 9 7 5 3 8 20 41 46 49 47 46 45 42 41 40 39 37 33 31 30 28 27 25 23 22 20 18 16 14 13 12 10 9 8 8 8
3 3 1 2 7 2 3 4 4 5 5 7 4 7 4 6 10 10 34 43 50 50 49 47 46 42 41 41 40 38 36 33 31 29 27 25 24 22 21 18 17 14 12 11 10 9 8 7 7
2 3 2 5 10 1 2 6 3 3 4 9 7 9 4 8 6 13 31 32 44 50 47 47 47 43 41 40 40 38 36 34 32 30 27 25 24 22 21 18 17 14 12 11 10 9 9 8 7
5 4 5 5 6 4 2 3 1 3 5 5 6 4 8 14 6 12 22 27 38 41 43 42 43 44 41 40 39 37 35 33 32 30 27 25 24 22 21 19 17 15 13 12 12 11 10 10 9
3 4 4 5 6 4 1 4 4 3 5 7 6 6 11 7 5 11 16 20 30 37 41 40 40 42 42 40 39 36 35 33 31 30 28 26 24 22 21 20 18 16 14 14 14 12 11 11 10
3 2 5 6 5 3 5 6 2 2 5 5 4 4 7 8 4 10 10 13 24 32 38 40 40 42 41 40 38 36 34 33 32 30 28 26 25 24 22 22 19 17 16 15 15 14 13 12 12
4 3 7 4 3 5 10 2 7 5 9 4 4 6 10 16 4 4 4 5 12 23 34 36 38 41 40 39 37 36 35 34 33 32 30 29 27 26 24 22 20 18 17 17 16 16 15 14 15
2 3 1 2 3 2 6 2 3 5 11 3 10 13 10 6 9 7 8 10 15 22 29 35 36 38 38 39 37 35 34 34 34 32 31 30 29 26 25 24 22 20 19 19 18 18 18 19 17
2 4 3 2 2 2 8 11 7 13 13 6 6 9 8 10 7 8 11 16 16 21 22 30 33 35 37 37 37 36 35 35 34 33 31 30 29 27 25 24 23 21 21 21 21 20 19 20 20
2 2 2 4 5 6 6 13 15 19 8 8 7 7 9 10 10 14 11 11 19 28 32 30 36 36 37 37 38 39 38 38 36 34 32 31 31 28 25 24 24 23 22 22 22 22 21 22 21
1 2 5 5 5 5 5 10 10 10 6 9 7 7 7 9 12 11 13 10 13 29 34 38 41 40 40 41 42 41 40 38 37 34 33 32 33 30 27 26 26 25 25 23 24 23 22 24 22
2 2 4 7 7 7 7 12 17 9 5 7 7 7 7 7 12 11 19 19 16 25 29 33 40 43 44 44 44 41 41 38 37 36 36 34 36 33 28 28 28 26 26 24 23 24 23 24 22
2 4 1 4 1 6 10 13 3 7 7 8 3 6 6 7 7 15 16 19 22 18 23 27 33 36 46 47 45 44 41 38 41 42 40 39 39 33 30 30 30 25 25 22 21 23 24 23 22
5 1 1 7 5 4 2 3 4 6 7 7 7 2 5 7 6 14 17 20 20 23 25 22 30 35 38 43 46 44 43 41 44 43 37 38 38 32 29 30 27 23 23 21 21 22 23 24 23
1 2 2 4 5 6 4 7 6 8 7 7 8 7 3 6 5 11 16 19 20 20 24 23 23 30 33 34 38 40 42 47 45 40 39 38 34 29 27 27 25 23 23 22 22 22 22 23 21
1 3 3 4 3 6 8 10 8 7 6 8 7 7 8 3 4 9 11 20 18 21 22 23 26 26 28 30 30 32 35 38 37 42 37 39 35 30 24 26 26 26 25 24 21 21 23 22 18
4 2 2 4 5 3 9 18 14 8 6 6 7 8 8 5 3 6 15 14 15 20 21 20 21 28 29 31 30 28 26 26 35 39 42 40 35 28 24 28 28 28 24 23 22 22 18 20 18
2 3 2 5 4 5 6 6 2 4 4 4 7 7 7 7 8 4 5 15 17 16 19 20 21 22 25 31 33 26 28 22 18 30 37 40 36 28 25 28 29 26 25 26 24 23 25 19 19
2 5 3 2 4 3 4 6 2 1 5 3 8 9 9 8 7 6 5 9 20 22 20 19 22 21 26 25 29 35 31 27 34 34 37 34 29 27 28 28 28 27 26 27 26 25 26 21 17
4 2 1 1 2 1 4 1 7 5 3 4 9 8 8 9 8 9 9 13 24 25 24 22 21 22 25 23 26 32 31 32 34 36 34 30 28 29 29 26 27 28 27 28 26 23 25 26 21
2 3 4 3 2 2 5 3 4 3 4 8 7 9 7 8 9 9 14 18 21 29 26 24 22 24 23 23 25 30 32 29 33 31 33 32 28 27 23 25 26 28 26 28 27 24 25 25 24
6 6 4 5 3 4 2 5 7 8 10 9 9 10 10 7 7 8 11 13 22 24 29 28 21 28 27 25 26 27 35 35 37 36 35 31 26 26 25 25 27 24 26 28 24 22 24 22 24
3 6 4 4 3 4 3 7 7 6 9 8 8 9 10 12 8 7 10 11 21 26 25 29 28 29 28 27 27 27 34 34 36 34 36 36 35 32 26 24 22 21 24 23 20 22 21 22 21
2 3 3 1 2 3 5 8 11 13 9 8 10 6 10 13 12 10 11 12 19 24 26 27 30 31 27 28 28 28 33 37 36 41 40 38 37 29 23 21 20 20 22 22 22 20 20 20 19
5 6 2 2 2 5 4 7 11 11 15 6 7 9 15 14 10 11 9 11 23 25 28 31 30 31 30 27 27 30 32 36 39 38 35 34 30 22 23 24 21 23 24 23 19 20 20 19 18
1 2 4 3 4 4 3 7 6 6 8 5 7 12 16 17 13 9 9 17 20 25 28 29 30 29 30 26 26 29 32 33 34 35 34 30 24 24 28 27 25 27 26 23 22 22 19 19 19
5 7 6 4 5 4 3 14 3 13 5 6 8 10 13 13 12 9 8 11 13 25 28 28 29 29 30 25 24 28 32 32 33 33 30 26 27 27 29 27 28 28 24 23 22 22 18 20 19
Wind_Direction
338 325 117 56 65 67 258 256 272 335 329 228 196 173 224 213 175 211 308 176 173 171 174 173 169 171 168 165 163 160 157 155 155 155 156 157 158 160 160 158 159 160 161 157 156 155 154 149 142
341 72 51 81 100 127 262 256 221 214 259 297 279 210 196 256 224 294 114 169 172 171 173 174 173 171 170 168 166 163 161 158 158 159 160 160 161 163 163 163 164 165 163 158 156 155 150 145 137
9 32 84 110 131 207 210 208 193 252 261 232 282 239 244 237 297 217 195 170 170 172 174 173 175 173 171 170 168 167 164 162 164 164 165 166 167 168 170 170 171 169 168 166 164 160 153 146 140
11 29 49 110 232 254 197 201 241 319 311 219 279 306 305 281 282 214 177 171 171 173 176 175 177 176 174 171 171 170 169 170 171 171 173 174 175 175 179 178 180 179 178 174 172 169 164 156 152
53 59 53 270 257 227 227 220 262 297 281 290 327 284 252 15 319 179 171 170 173 175 178 177 178 179 178 176 175 173 174 176 177 179 180 181 183 184 185 185 185 186 190 187 183 181 177 179 171
72 98 99 244 249 108 283 227 239 232 284 300 326 313 298 349 6 148 160 167 174 175 179 181 180 181 181 181 181 178 179 182 183 185 187 189 190 190 192 192 193 193 196 200 200 197 195 197 190
159 126 207 232 269 338 287 239 229 313 305 304 290 338 299 357 65 148 160 168 174 178 180 185 187 184 185 186 187 185 186 187 190 192 194 196 197 198 200 200 201 203 204 211 212 209 209 211 208
142 138 197 220 252 279 301 347 293 343 291 302 353 11 351 333 61 155 161 167 177 182 184 189 190 190 188 190 192 191 192 194 197 200 201 203 203 207 210 208 208 212 215 219 223 223 220 221 224
147 183 208 205 169 197 288 12 230 290 277 342 312 55 310 348 103 129 135 158 179 185 189 193 195 194 193 194 196 197 199 201 204 207 209 209 210 211 215 218 216 218 225 230 235 235 235 230 232
172 185 216 181 173 285 263 217 308 336 315 297 306 321 329 342 313 123 147 179 190 192 196 200 201 198 197 198 201 203 204 208 210 212 215 215 216 218 221 225 223 225 232 237 241 242 242 239 237
208 213 225 20 58 346 296 310 291 294 288 89 315 309 325 314 321 267 184 200 206 206 209 207 208 205 201 202 203 208 210 214 218 218 219 224 225 223 224 228 230 232 236 242 244 243 243 244 244
218 247 201 122 319 289 286 316 275 263 267 297 297 282 299 307 287 255 236 207 211 228 226 220 216 211 209 209 208 213 215 217 222 223 224 230 232 231 230 231 234 237 239 246 250 249 251 250 253
169 299 329 305 271 259 284 275 273 260 290 276 276 288 284 285 277 281 259 239 229 213 226 232 223 217 215 217 214 216 218 221 224 227 228 231 235 237 238 239 241 245 248 249 252 255 253 254 256
223 291 282 264 229 242 228 268 267 271 17 311 299 287 279 273 276 294 280 252 243 230 222 222 223 222 220 219 222 219 221 224 227 231 235 238 242 240 241 245 247 251 253 253 257 259 260 260 260
251 306 301 220 216 226 192 261 257 317 2 299 347 335 343 327 317 285 285 287 266 246 231 228 223 219 224 224 226 226 226 226 230 234 236 238 244 244 246 247 249 252 254 252 256 258 260 259 259
48 59 23 288 146 249 174 244 54 1 18 327 340 334 355 335 329 334 335 320 294 269 239 237 230 223 223 226 229 232 233 233 236 239 237 239 241 241 247 246 247 249 249 249 251 255 255 254 255
6 146 299 320 33 339 145 302 322 323 331 311 311 270 316 319 325 330 338 333 322 294 276 246 231 229 230 229 230 235 240 239 242 242 244 243 248 235 239 243 245 243 243 246 246 250 249 250 250
227 356 306 257 325 4 300 227 287 297 308 290 299 304 245 297 293 322 329 334 332 320 291 275 252 236 232 228 229 230 235 239 242 243 239 253 242 235 234 242 245 239 239 242 242 244 246 246 251
110 186 230 285 348 9 291 288 284 271 271 282 283 297 299 267 267 312 317 329 333 336 332 306 277 257 235 219 215 226 231 235 238 240 245 246 240 237 233 245 242 238 235 244 245 244 241 239 240
180 175 231 288 285 301 277 294 286 217 232 217 263 284 280 279 286 315 320 324 322 321 324 321 303 279 257 241 225 217 227 241 246 244 244 242 244 237 238 240 243 238 237 240 240 235 228 233 222
155 160 222 237 311 291 314 281 90 279 253 301 286 267 283 287 303 294 302 313 316 314 317 316 307 302 285 260 235 222 222 228 230 235 241 242 244 237 238 243 241 242 241 242 241 236 227 205 213
196 202 215 261 31 291 37 286 260 120 268 277 304 297 286 297 307 297 303 293 308 309 308 306 301 298 291 276 243 230 226 227 236 244 246 248 244 237 237 241 246 249 244 245 243 235 230 215 204
202 160 332 294 240 103 280 290 277 309 330 330 311 276 276 286 284 299 302 301 311 313 312 312 304 297 287 282 258 236 231 235 238 238 242 244 243 236 235 239 248 247 248 250 244 234 226 217 207
77 40 34 51 76 20 260 184 244 241 226 315 307 307 270 285 304 309 304 313 309 316 313 314 310 303 294 283 271 243 234 231 230 231 231 229 230 227 230 243 243 246 248 246 240 233 225 218 219
73 52 340 345 3 234 285 294 244 248 278 269 255 285 299 294 290 294 304 310 312 308 307 310 303 303 302 291 278 258 237 233 234 230 231 226 225 228 233 234 239 246 247 242 231 224 219 215 217
189 152 158 244 229 245 1 251 252 221 237 267 240 265 296 297 288 280 282 286 299 304 301 305 302 301 299 295 280 263 248 232 232 233 231 229 231 234 231 236 242 244 241 230 214 208 213 221 210
170 174 192 154 8 32 229 290 293 281 284 272 268 308 293 286 296 298 300 291 293 300 295 297 299 299 295 289 279 261 246 229 225 232 233 232 233 230 227 232 232 229 219 207 199 207 211 208 199
159 161 86 21 258 259 258 254 238 301 292 300 308 298 308 303 289 297 309 305 312 303 295 305 298 296 297 286 277 259 243 235 229 230 230 229 227 227 226 218 212 205 198 194 200 200 196 197 200
167 170 75 132 155 202 300 264 220 239 259 291 306 313 314 308 297 287 296 304 303 313 302 305 300 294 294 283 276 256 244 236 230 229 229 227 227 220 213 208 197 196 193 193 197 196 192 192 192
170 192 156 137 244 216 216 262 340 279 302 313 312 316 320 316 287 283 288 297 319 337 322 312 301 299 295 283 272 247 238 232 223 223 223 221 218 212 207 200 193 194 189 194 193 190 191 185 187